STARLINK-34258, 64211

Orbit data source: Space-Track

STARLINK-34258, 64211 is a payload satellite owned by SpaceX/Seattle (US) in LEO that was launched on Sat, 31 May 2025 UTC via an FALCON 9 launch vehicle from the Air Force Western Test Range (AFWTR). Payload-class satellites include a variety of spacecraft equipped with specific instruments for various scientific and technological missions. These include communications satellites like Starlink; space stations such as the ISS; scientific satellites like the Hubble; Earth observation satellites from companies like Planet Labs, Umbra, and HawkEye 360; GPS; miniature CubeSats for education and research; and military/defense satellites.

Loading next visibility...
Identifier
64211, 2025-117J
Orbit
LEO
Country
Flag of USUS
Related business
Manufacturer
SpaceX/Seattle
Mission
Operational Commercial Communications
Bus & Motor
STARLINK V2MO, Unknown motor
Mass
575 kg wet, ~530 kg dry
Launch date (UTC)
2025-05-31 (1 year ago)
Launch vehicle
FALCON 9
Launch site
Air Force Western Test Range (AFWTR)
Object type
Payload
Rocket body
Debris
Shape & HBR
Box + 2 Pan, 17.7 m
Radar Cross Section
36.964 m², Large (>1 m²)

Expand to show TLE details & history
Last TLE update: 1 day ago

TLE from 1 day ago
0 STARLINK-34258
1 64211U 25117J   26170.64207059  .00020026  00000-0  60210-3 0  9991
2 64211  53.1604 285.4389 0001175  84.1871 275.9266 15.34407113 60144
Epoch: 2026-06-19T15:24Z
TLE epoch observation values (Epoch: 2026-06-19T15:24:34.898Z)
Latitude
-0.00001°
Longitude
146.42537°
Altitude
463.501 km
Speed
7.636 km/s
True Right ascension
19h 01m 45s
True Declination
0° 00' 00"
Sunlit
Object was in full shadow at epoch
Visualization orbit readout
Latitude
Unknown
Longitude
Unknown
Altitude
Unknown
Speed
Unknown
Apparent Right ascension
Unknown
Apparent Declination
Unknown
Sunlit
N/A
Visualization observer readout
Local Sidereal Time
07:18:32
Azimuth
Unknown
Elevation
Unknown
Doppler factor
Unknown
Orbital elements
Apogee altitude
463.743 km
Perigee altitude
462.135 km
Semi-major axis
6,841.076 km
Eccentricity
0.00012
Inclination
53.1604°
RAAN
285.4389°
Arg. of periapsis
84.1871°
True anomaly
275.91321°
Mean anomaly
275.9266°
Eccentric anomaly
275.9199°
Mean motion
3.83581 °/min
Orbital period
93.85 mins
BSTAR
0.0006021
Loading maneuver chart data...
Computing Atmospheric mass density...
Loading historical data...
Loading historical data...
Loading historical data...
Loading historical data...
Loading historical data...
Loading historical data...
Loading historical data...

Documentation

Showing up to 5 results
|